Flag for U.S.A. Weather past 2 weeks in Riverside, California, U.S.A.

Now
70 °F

Clear.


Feels Like: 73 °F
Forecast: 62 / 92 °F
Wind: 3 mph from West

Location: Riverside Municipal Airport

Current Time: Sep 2, 2014 at 12:25:30 AM

Latest Report: Sep 1, 2014 at 11:53 PM


Visibility: 10 mi

Pressure: 29.79 "Hg

Humidity: 73%

Dew point: 61 °F

Location of RiversideLocation

Historic Weather in Riverside — Graph

°F

Riverside temperature yesterday

Maximum temperature yesterday: 95 °F (at 2:53 PM)
Minimum temperature yesterday: 65 °F (at 5:53 AM)
Average temperature yesterday: 79 °F

Past Weeks' High & Low Weather Summary

 TemperatureHumidityPressure
High99 °F (Aug 28, 2:53 PM)90% (Aug 21, 6:53 AM)30.01 "Hg (Aug 21, 6:53 AM)
Low63 °F (Aug 23, 5:53 AM)13% (Aug 29, 2:53 PM)29.69 "Hg (Aug 30, 4:53 PM)
Average77 °F53%29.85 "Hg
* Reported Aug 17 10:53 PM — Sep 1 10:53 PM, Riverside, Weather by CustomWeather, © 2014

Note: Actual official high and low records may vary slightly from our data, if they occured in-between our weather recording intervals... More about our weather records

Advertising

Riverside weather history for previous 24 hours

 ConditionsComfort  
Time TempWeatherWind HumidityBarometerVisibility
10:53 PM
Sep 1
71 °FClear.5 mph71%29.79 "Hg10 mi
9:53 PM75 °FClear.3 mph62%29.78 "Hg10 mi
8:53 PM78 °FClear.5 mph54%29.77 "Hg10 mi
7:53 PM81 °FSunny.6 mph49%29.75 "Hg10 mi
6:53 PM85 °FSunny.6 mph42%29.72 "Hg10 mi
5:53 PM88 °FSunny.12 mph39%29.71 "Hg10 mi
4:53 PM91 °FSunny.13 mph34%29.71 "Hg10 mi
3:53 PM94 °FSunny.12 mph29%29.71 "Hg10 mi
2:53 PM95 °FSunny.8 mph26%29.71 "Hg10 mi
1:53 PM94 °FSunny.6 mph21%29.73 "Hg10 mi
12:53 PM92 °FSunny.7 mph26%29.75 "Hg10 mi
11:53 AM89 °FSunny.3 mph28%29.77 "Hg10 mi
10:53 AM85 °FSunny.3 mph39%29.79 "Hg10 mi
9:53 AM78 °FSunny.No wind56%29.80 "Hg10 mi
8:53 AM72 °FSunny.No wind73%29.80 "Hg8 mi
7:53 AM68 °FSunny.No wind82%29.80 "Hg7 mi
6:53 AM65 °FClear.No wind87%29.80 "Hg9 mi
5:53 AM65 °FClear.No wind87%29.78 "Hg10 mi
4:53 AM66 °FClear.No wind87%29.77 "Hg10 mi
3:53 AM68 °FClear.No wind87%29.77 "Hg8 mi
2:53 AM69 °FClear.No wind84%29.78 "Hg9 mi
1:53 AM69 °FClear.No wind84%29.78 "Hg9 mi
12:53 AM70 °FClear.3 mph81%29.78 "Hg10 mi
Weather by CustomWeather, © 2014

See weather overviewHow to use our weather pages